Stations météo

Publicité
Boulogne, France (7002): Température de l'air & dewpoint: 16.11.2018 11:00:00 - 22.11.2018 11:00:00 (CET)Boulogne, France (7002): Vitesse du vent & gusts: 16.11.2018 11:00:00 - 22.11.2018 11:00:00 (CET)Boulogne, France (7002): Direction du vent: 16.11.2018 11:00:00 - 22.11.2018 11:00:00 (CET)Boulogne, France (7002): reduced air pressure: 16.11.2018 11:00:00 - 22.11.2018 11:00:00 (CET)Boulogne, France (7002): visibility: 16.11.2018 11:00:00 - 22.11.2018 11:00:00 (CET)Boulogne, France (7002): Quantités de précipitations: 16.11.2018 11:00:00 - 22.11.2018 11:00:00 (CET)
Date & Time tt [°C] td [°C] ff [km/h] ff [knt] fx [km/h] fx [knt] dd ppp [hPa] vv [km] rr [mm]
22.11.2018 11:00:00 4,1 1,8 7 4 18 10 E 1018,2 - 0,0
22.11.2018 10:00:00 3,2 1,4 9 5 21 11 E 1018,1 - 0,0
22.11.2018 09:00:00 3,0 1,4 6 3 17 9 SE 1017,9 - 0,0
22.11.2018 08:00:00 3,1 1,5 7 4 18 10 SE 1017,6 - 0,0
22.11.2018 07:00:00 2,8 1,3 8 5 21 12 ESE 1017,7 7 0,0
22.11.2018 06:00:00 2,8 1,5 13 7 25 13 E 1018,0 - 0,0
22.11.2018 05:00:00 3,2 1,6 15 8 24 13 E 1018,0 - 0,0
22.11.2018 04:00:00 3,3 1,7 14 8 24 13 E 1018,0 4,0 0,0
22.11.2018 03:00:00 3,8 1,5 18 10 26 14 E 1018,1 - 0,0
22.11.2018 02:00:00 3,3 1,3 16 8 23 12 E 1018,2 - 0,0
22.11.2018 01:00:00 3,1 1,0 16 9 22 12 E 1018,2 - 0,0
22.11.2018 00:00:00 2,3 -1,1 10 5 22 12 E 1018,5 - 0,0
21.11.2018 23:00:00 2,6 -1,4 14 7 22 12 ENE 1018,4 - 0,0
21.11.2018 22:00:00 2,2 -0,9 14 8 22 12 E 1018,4 6 0,0
21.11.2018 21:00:00 2,5 -0,9 9 5 17 9 E 1018,4 - 0,0
21.11.2018 20:00:00 2,9 -0,9 14 7 22 12 ESE 1018,1 - 0,0
21.11.2018 19:00:00 2,9 -0,4 12 6 21 12 E 1017,6 - 0,0
21.11.2018 18:00:00 3,2 0,1 15 8 27 15 E 1017,2 - 0,0
21.11.2018 17:00:00 3,9 0,2 9 5 21 11 E 1016,7 - 0,0
21.11.2018 16:00:00 5,1 -0,3 13 7 25 14 SE 1016,1 6 0,0
21.11.2018 15:00:00 5,4 -0,9 13 7 26 14 SE 1015,6 - 0,0
21.11.2018 14:00:00 5,1 -0,9 14 8 25 13 SE 1015,3 - 0,0
21.11.2018 13:00:00 4,3 -0,5 16 8 27 15 SE 1015,1 6 0,0
21.11.2018 12:00:00 3,6 -0,1 13 7 29 15 SE 1014,9 - 0,0
21.11.2018 11:00:00 2,4 0,0 13 7 29 16 SE 1014,3 - 0,0
21.11.2018 10:00:00 1,2 -0,4 16 9 29 16 SE 1013,4 4,0 0,0
21.11.2018 09:00:00 0,5 -1,0 13 7 27 14 SE 1012,5 - 0,0
21.11.2018 08:00:00 0,4 -0,9 16 8 35 19 SE 1011,4 - 0,0
21.11.2018 07:00:00 0,4 -1,0 18 10 34 19 SSE 1010,5 6 0,0
21.11.2018 06:00:00 0,8 -1,1 18 10 35 19 SSE 1009,4 - 0,0
21.11.2018 05:00:00 1,5 -0,1 20 11 45 24 SSE 1008,5 - 0,0
21.11.2018 04:00:00 1,3 0,0 22 12 37 20 SSE 1007,8 6 0,0
21.11.2018 03:00:00 1,5 0,3 24 13 40 22 SSE 1007,0 - 0,0
21.11.2018 02:00:00 1,9 0,7 16 9 27 15 SSE 1006,3 - 0,0
21.11.2018 01:00:00 2,0 0,7 13 7 24 13 SE 1005,8 4,0 0,0
21.11.2018 00:00:00 2,0 0,5 14 8 23 12 ESE 1005,6 - 0,0
20.11.2018 23:00:00 1,9 0,6 9 5 17 9 E 1005,5 - 0,0
20.11.2018 22:00:00 1,8 0,3 9 5 24 13 E 1005,4 4,0 0,0
20.11.2018 21:00:00 2,0 0,2 11 6 28 15 E 1005,4 - 0,0
20.11.2018 20:00:00 2,3 0,0 16 9 33 18 E 1005,5 - 0,0
20.11.2018 19:00:00 2,8 -1,0 20 11 33 18 ENE 1005,3 4,0 0,0
20.11.2018 18:00:00 3,1 -1,1 21 11 35 19 ENE 1005,1 - 0,0
20.11.2018 17:00:00 3,2 -1,2 17 9 38 21 E 1005,0 - 0,0
20.11.2018 16:00:00 3,1 -1,5 22 12 40 21 ENE 1004,7 4,0 0,0
20.11.2018 15:00:00 3,0 -1,7 19 11 39 21 ENE 1005,0 - 0,0
20.11.2018 14:00:00 3,0 -1,7 21 12 49 27 ENE 1005,4 - 0,0
20.11.2018 13:00:00 3,0 -1,7 21 12 40 22 ENE 1005,9 4,0 0,0
20.11.2018 12:00:00 2,8 -1,6 21 11 41 22 ENE 1006,5 - 0,0
20.11.2018 11:00:00 2,6 -1,6 20 11 39 21 ENE 1007,1 - 0,0
20.11.2018 10:00:00 2,4 -1,6 21 11 42 23 ENE 1007,4 4,0 0,0
20.11.2018 09:00:00 2,4 -1,4 22 12 45 25 ENE 1008,0 - 0,0
20.11.2018 08:00:00 2,6 -0,7 23 12 48 26 ENE 1008,0 - 0,0
20.11.2018 07:00:00 2,6 -0,5 24 13 53 29 ENE 1008,3 - 0,0
20.11.2018 06:00:00 2,7 -1,1 30 16 56 30 ENE 1008,5 - 0,0
20.11.2018 05:00:00 3,1 -0,5 32 17 71 38 ENE 1008,9 - 0,0
20.11.2018 04:00:00 3,6 -0,4 29 15 51 28 ENE 1009,4 - 0,0
20.11.2018 03:00:00 3,5 -0,3 25 14 51 28 ENE 1009,9 - 0,0
20.11.2018 02:00:00 3,1 0,0 27 15 50 27 ENE 1010,6 - 0,0
20.11.2018 01:00:00 2,8 -0,3 30 16 54 29 ENE 1011,2 - 0,0
20.11.2018 00:00:00 3,4 -0,3 29 15 53 29 ENE 1012,2 - 0,0
19.11.2018 23:00:00 3,7 0,6 25 14 48 26 ENE 1012,6 - 0,0
19.11.2018 22:00:00 4,0 0,9 24 13 51 28 ENE 1013,4 8 0,0
19.11.2018 21:00:00 3,9 0,8 23 12 49 26 ENE 1013,8 - 0,0
19.11.2018 20:00:00 3,6 0,6 26 14 51 27 ENE 1014,2 - 0,0
19.11.2018 19:00:00 4,4 1,2 27 15 64 34 ENE 1014,6 10 0,0
19.11.2018 18:00:00 4,6 0,7 23 12 56 30 ENE 1015,0 - 0,0
19.11.2018 17:00:00 5,9 0,8 17 9 40 22 ENE 1015,5 - 0,0
19.11.2018 16:00:00 6,2 0,9 27 15 50 27 ENE 1016,1 10 0,0
19.11.2018 15:00:00 6,6 0,7 25 14 51 28 ENE 1016,7 - 0,0
19.11.2018 14:00:00 6,3 1,2 30 16 53 29 ENE 1017,7 - 0,0
19.11.2018 13:00:00 6,0 1,7 27 15 49 27 ENE 1018,5 10 0,0
19.11.2018 12:00:00 5,3 1,9 26 14 46 25 ENE 1019,6 - 0,0
19.11.2018 11:00:00 4,6 1,6 29 16 49 27 ENE 1020,6 - 0,0
19.11.2018 10:00:00 3,6 1,5 23 12 41 22 ENE 1021,0 10 0,0
19.11.2018 09:00:00 2,8 1,5 26 14 54 29 ENE 1021,2 - 0,0
19.11.2018 08:00:00 2,4 0,9 29 16 65 35 ENE 1021,3 - 0,0
19.11.2018 07:00:00 1,8 0,2 28 15 56 31 E 1021,5 - 0,0
19.11.2018 06:00:00 1,2 -1,2 35 19 59 32 ENE 1021,5 - 0,0
19.11.2018 05:00:00 1,3 -1,1 35 19 55 30 ENE 1021,4 - 0,0
19.11.2018 04:00:00 1,3 -1,6 35 19 53 28 ENE 1021,5 8 0,0
19.11.2018 03:00:00 1,3 -2,6 31 17 49 26 ENE 1022,4 - 0,0
19.11.2018 02:00:00 1,6 -4,3 27 15 51 27 ENE 1022,9 - 0,0
19.11.2018 01:00:00 1,9 -4,6 27 15 46 25 ENE 1023,4 8 0,0
19.11.2018 00:00:00 2,5 -4,3 29 16 54 29 ENE 1023,6 - 0,0
18.11.2018 23:00:00 3,1 -3,5 30 16 50 27 ENE 1023,7 - 0,0
18.11.2018 22:00:00 3,7 -2,9 33 18 52 28 ENE 1023,9 8 0,0
18.11.2018 21:00:00 3,9 -2,5 37 20 54 29 ENE 1024,1 - 0,0
18.11.2018 20:00:00 4,4 -2,0 35 19 56 30 ENE 1024,2 - 0,0
18.11.2018 19:00:00 5,6 -0,9 32 17 52 28 ENE 1024,3 8 0,0
18.11.2018 18:00:00 6,3 -0,5 28 15 45 24 ENE 1024,5 - 0,0
18.11.2018 17:00:00 7,0 -0,5 24 13 42 23 ENE 1024,4 - 0,0
18.11.2018 16:00:00 7,5 -0,2 27 14 45 24 ENE 1024,8 14 0,0
18.11.2018 15:00:00 7,9 -0,1 24 13 49 27 ENE 1025,0 - 0,0
18.11.2018 14:00:00 7,5 0,9 20 11 42 23 NE 1025,6 - 0,0
18.11.2018 13:00:00 6,4 0,1 25 13 45 24 ENE 1025,9 14 0,0
18.11.2018 12:00:00 5,3 -0,5 26 14 46 25 ENE 1026,9 - 0,0
18.11.2018 11:00:00 5,0 -1,3 29 16 44 24 ENE 1026,7 - 0,0
18.11.2018 10:00:00 3,0 -1,4 29 15 41 22 ENE 1027,1 16 0,0
18.11.2018 09:00:00 3,5 -2,1 22 12 46 25 E 1026,7 - 0,0
18.11.2018 08:00:00 3,1 -2,0 27 15 45 25 ENE 1026,6 - 0,0
18.11.2018 07:00:00 3,4 -1,8 26 14 46 25 ENE 1026,7 - 0,0
18.11.2018 06:00:00 3,6 -1,6 26 14 42 23 E 1026,8 - 0,0
18.11.2018 05:00:00 3,5 -1,5 24 13 40 22 E 1026,7 - 0,0
18.11.2018 04:00:00 4,1 -1,3 21 12 39 21 E 1026,6 10 0,0
18.11.2018 03:00:00 4,5 -1,1 28 15 43 23 E 1026,4 - 0,0
18.11.2018 02:00:00 4,7 -0,5 26 14 43 23 E 1026,6 - 0,0
18.11.2018 01:00:00 5,1 0,1 27 14 46 25 E 1026,8 10 0,0
18.11.2018 00:00:00 5,7 0,5 26 14 48 26 E 1026,8 - 0,0
17.11.2018 23:00:00 6,2 0,7 27 14 49 26 E 1026,5 - 0,0
17.11.2018 22:00:00 6,3 0,8 22 12 45 24 E 1026,5 - 0,0
17.11.2018 21:00:00 7,1 0,5 25 13 54 29 E 1026,0 - 0,0
17.11.2018 20:00:00 7,2 0,8 23 13 47 26 E 1025,7 - 0,0
17.11.2018 19:00:00 6,6 2,1 23 13 50 27 E 1025,9 - 0,0
17.11.2018 18:00:00 6,9 2,2 30 16 45 25 ENE 1025,7 - 0,0
17.11.2018 17:00:00 7,5 2,8 19 11 40 21 ENE 1025,7 - 0,0
17.11.2018 16:00:00 8,2 2,8 18 10 36 19 ENE 1025,9 8 0,0
17.11.2018 15:00:00 8,4 2,8 21 11 36 20 ENE 1025,8 - 0,0
17.11.2018 14:00:00 8,5 2,9 14 8 32 17 ENE 1026,1 - 0,0
17.11.2018 13:00:00 8,4 2,6 11 6 28 15 ENE 1026,5 8 0,0
17.11.2018 12:00:00 7,1 3,0 18 10 31 17 ENE 1026,7 - 0,0
17.11.2018 11:00:00 5,0 3,3 15 8 27 14 E 1027,2 - 0,0
17.11.2018 10:00:00 3,5 2,8 10 5 21 12 ENE 1027,4 4,5 0,0
17.11.2018 09:00:00 2,8 2,2 8 4 17 9 E 1027,4 - 0,0
17.11.2018 08:00:00 3,0 2,4 9 5 26 14 E 1027,1 - 0,0
17.11.2018 07:00:00 3,2 2,8 11 6 27 15 ENE 1026,7 4,0 0,2
17.11.2018 06:00:00 3,6 3,2 18 10 29 16 E 1026,8 - 0,0
17.11.2018 05:00:00 3,8 3,5 11 6 24 13 E 1026,8 - 0,0
17.11.2018 04:00:00 4,2 3,9 13 7 26 14 E 1026,9 6 0,0
17.11.2018 03:00:00 4,7 4,6 9 5 25 13 E 1027,2 - 0,0
17.11.2018 02:00:00 5,0 4,9 9 5 20 11 E 1027,0 - 0,0
17.11.2018 01:00:00 5,2 5,1 7 4 18 10 ESE 1026,8 6 0,0
17.11.2018 00:00:00 5,6 5,5 9 5 27 15 ESE 1026,6 - 0,0
16.11.2018 23:00:00 5,9 5,9 12 7 27 14 ESE 1026,6 - 0,0
16.11.2018 22:00:00 5,6 5,5 15 8 26 14 E 1026,5 - 0,0
16.11.2018 21:00:00 5,8 5,7 14 7 24 13 ESE 1026,4 - 0,0
16.11.2018 20:00:00 6,0 5,9 6 3 13 7 E 1026,5 - 0,0
16.11.2018 19:00:00 6,3 6,2 8 4 16 9 ENE 1026,4 0,3 0,0
16.11.2018 18:00:00 6,5 6,4 8 4 18 10 E 1025,7 - 0,0
16.11.2018 17:00:00 7,2 7,1 8 4 21 11 E 1025,4 - 0,0
16.11.2018 16:00:00 7,7 7,6 8 4 15 8 E 1025,5 - 0,0
16.11.2018 15:00:00 7,9 7,8 6 3 10 5 ENE 1025,8 - 0,0
16.11.2018 14:00:00 7,8 7,7 6 4 16 8 ESE 1025,7 - 0,0
16.11.2018 13:00:00 7,4 7,3 10 5 18 10 E 1026,1 - 0,0
16.11.2018 12:00:00 7,2 7,2 4 2 18 10 ESE 1026,4 - 0,0
16.11.2018 11:00:00 6,8 6,7 3 2 8 5 ENE 1026,4 - 0,0

tt = Température de l'air
td = dewpoint
ff = Vitesse du vent
fx = gusts
dd = Direction du vent
ppp = reduced air pressure
vv = visibility
rr = Quantités de précipitations

stations d'obs. à proximité